Tracking 17855 objects as of 25-September-2016
HD Live streaming from Space Station
objects crossing your sky now

CZ-4B DEB

Track CZ-4B DEB now!
10-day predictions


NORAD ID: 36290
Int'l Code: 2008-053L
Perigee: 565.7 km
Apogee: 595.4 km
Inclination: 97.6 °
Period: 96.1 minutes
Semi major axis: 6951 km
RCS: 0.0218 m2 (small)
Launch date: October 25, 2008
Source: People's Republic of China (PRC)
Launch site: Taiyaun Space Center, China (TSC)

Note: This is SATELLITE DEBRIS
Your satellite tracking list
Your tracking list is empty





NASA's NSSDC Master Catalog

Two Line Element Set (TLE):
1 36290U 08053L   16266.21760349 -.00000123 +00000-0 -54796-5 0  9993
2 36290 097.5724 256.6448 0021347 000.1653 359.9573 14.97894287196032
Source of the keplerian elements: AFSPC

N2YO: 416